Campo, CA

3:30 AM PDT on July 17, 2019 (GMT -0700)
Campo

Weather History for KCZZ - May, 2019

Change the Weather History Date:

Sunday, May 5, 2019

  Actual Average Record
Temperature  
Mean Temperature 51 °F 59 °F  
Max Temperature 70 °F 77 °F 93 °F (1989)
Min Temperature 32 °F 41 °F 29 °F (1959)
Degree Days  
Heating Degree Days 14 6  
Month to date heating degree days 50 34  
Since 1 July heating degree days 2768 2802  
Cooling Degree Days 0 0  
Month to date cooling degree days 0 0  
Year to date cooling degree days 2 3  
Growing Degree Days 1 (Base 50)    
Moisture  
Dew Point 35 °F    
Average Humidity 54    
Maximum Humidity 92    
Minimum Humidity 15    
Precipitation  
Precipitation 0.00 in 0.01 in 0.24 in (1964)
Month to date precipitation 0.00 0.07  
Year to date precipitation 11.19 9.93  
Sea Level Pressure  
Sea Level Pressure 29.80 in    
Wind  
Wind Speed 9 mph (SW)    
Max Wind Speed 23 mph    
Max Gust Speed 28 mph    
T = Trace of Precipitation, MM = Missing Value Source: NWS Daily Summary

Daily Weather History Graph

Daily Weather History Graph

Search for Another Location

Airport or City:

Astronomy

May. 05, 2019 Rise Set
Actual Time 5:55 AM PDT 7:30 PM PDT
Civil Twilight 5:28 AM PDT 7:56 PM PDT
Nautical Twilight 4:57 AM PDT 8:28 PM PDT
Astronomical Twilight 4:23 AM PDT 9:01 PM PDT
Moon 6:40 AM PDT (5/5) 8:28 PM PDT (5/5)
Length of Visible Light 14h 27m
Length of Day
13h 34m
New Moon, 1% of the Moon is Illuminated
May 5
New Moon
May 11
First Quarter
May 18
Full
May 26
Last Quarter
Jun 3
New

Hourly Weather History & Observations

Time (PDT) Temp. Windchill Dew Point Humidity Pressure Visibility Wind Dir Wind Speed Gust Speed Precip Events Conditions
1:52 AM 37.9 °F 34.4 °F 35.1 °F 89% 29.81 in - NE 4.6 mph - N/A   Unknown
2:52 AM 37.9 °F 33.5 °F 36.0 °F 93% 29.79 in - ENE 5.8 mph - N/A   Unknown
3:52 AM 36.0 °F 33.3 °F 33.1 °F 89% 29.79 in - NNE 3.5 mph - N/A   Unknown
4:52 AM 36.0 °F 33.3 °F 32.0 °F 86% 29.79 in - NE 3.5 mph - N/A   Unknown
5:52 AM 32.0 °F 28.7 °F 28.0 °F 85% 29.79 in - NNE 3.5 mph - N/A   Unknown
6:52 AM 39.0 °F 34.8 °F 32.0 °F 76% 29.81 in - ENE 5.8 mph - N/A   Unknown
7:52 AM 46.9 °F - 37.9 °F 71% 29.82 in - Calm Calm - N/A   Unknown
8:52 AM 57.9 °F - 35.1 °F 42% 29.80 in - SSW 5.8 mph - N/A   Unknown
9:52 AM 62.1 °F - 21.9 °F 21% 29.80 in - SW 13.8 mph - N/A   Unknown
10:52 AM 64.9 °F - 15.1 °F 15% 29.81 in - WSW 12.7 mph - N/A   Unknown
11:52 AM 66.0 °F - 23.0 °F 20% 29.81 in - SW 15.0 mph - N/A   Unknown
12:52 PM 66.9 °F - 33.1 °F 28% 29.79 in - SW 15.0 mph - N/A   Unknown
1:52 PM 68.0 °F - 34.0 °F 28% 29.79 in - SSW 18.4 mph - N/A   Unknown
2:52 PM 70.0 °F - 37.9 °F 31% 29.78 in - WSW 15.0 mph 23.0 mph N/A   Unknown
3:52 PM 68.0 °F - 35.1 °F 30% 29.77 in - SW 17.3 mph - N/A   Unknown
4:52 PM 68.0 °F - 33.1 °F 27% 29.77 in - SW 17.3 mph 24.2 mph N/A   Unknown
5:52 PM 63.0 °F - 37.9 °F 40% 29.78 in - SW 17.3 mph - N/A   Unknown
6:52 PM 59.0 °F - 43.0 °F 55% 29.79 in - SW 11.5 mph - N/A   Unknown
7:52 PM 54.0 °F - 42.1 °F 64% 29.79 in - SW 12.7 mph - N/A   Unknown
8:52 PM 51.1 °F - 42.1 °F 71% 29.81 in - SW 12.7 mph - N/A   Unknown
9:52 PM 50.0 °F - 44.1 °F 80% 29.81 in - SW 13.8 mph - N/A   Unknown
10:52 PM 51.1 °F - 43.0 °F 74% 29.81 in - SW 12.7 mph - N/A   Unknown
11:52 PM 51.1 °F - 43.0 °F 74% 29.80 in - SW 11.5 mph - N/A   Unknown